Torna al catalogo

MARAFON-D GVM

AttivoComunicazioniPO
NORAD 59072·PAYLOAD·🇷🇺 Russia
Questo nome del satellite non è ancora stato confermato da fonti ufficiali.

Lanciato Feb 29, 2024 da Vostochny Cosmodrome

Loading…

Prossimi Passaggi (prossime 24 ore)

TLE

AggiornatoSource: Space-Track

Epoca: Sep 14, 2026, 13:39 UTC

1 59072U 24039V   26257.56935833  .00000167  00000-0  42472-4 0  9992
2 59072  88.9758 273.0706 0018071  40.5896 319.6652 14.46041172134105

Traccia MARAFON-D GVM in tempo reale con AllMySat

Download on the App Store